Flag for India Weather past 2 weeks in Lucknow, Uttar Pradesh, India

Now
70 °F

Haze.


Feels Like: 70 °F
Forecast: 79 / 98 °F
Wind: 12 mph from East

Location: Lucknow / Amausi

Current Time: Apr 26, 2015 at 6:01:45 AM

Latest Report: Apr 26, 2015 at 5:00 AM


Visibility: 2 mi

Pressure: 29.83 "Hg

Humidity: 78%

Dew point: 63 °F

Location of LucknowLocation

Historic Weather in Lucknow — Graph

°F

Lucknow temperature yesterday

Maximum temperature yesterday: 90 °F (at 11:30 AM)
Minimum temperature yesterday: 72 °F (at 5:00 AM)
Average temperature yesterday: 82 °F

Past Weeks' High & Low Weather Summary

 TemperatureHumidityPressure
High108 °F (Apr 21, 2:30 PM)94% (Apr 13, 2:00 AM)30.01 "Hg (Apr 13, 2:00 AM)
Low66 °F (Apr 11, 5:30 AM)13% (Apr 22, 2:00 PM)29.53 "Hg (Apr 18, 3:00 PM)
Average85 °F52%29.77 "Hg
* Reported Apr 11 4:00 AM — Apr 26 4:00 AM, Lucknow, Weather by CustomWeather, © 2015

Note: Actual official high and low records may vary slightly from our data, if they occured in-between our weather recording intervals... More about our weather records

Advertising

Lucknow weather history for previous 24 hours

 ConditionsComfort  
Time TempWeatherWind HumidityBarometerVisibility
4:00 AM
Sun, Apr 26
70 °FHaze.10 mph78%29.83 "Hg2 mi
2:00 AM72 °FHaze.6 mph73%29.83 "Hg2 mi
1:00 AM72 °FDuststorm.7 mph73%29.83 "Hg2 mi
12:00 AM72 °FDuststorm.12 mph73%29.83 "Hg2 mi
11:00 PM
Sat, Apr 25
73 °FDuststorm.12 mph69%29.80 "Hg2 mi
10:00 PM75 °FDuststorm.12 mph65%29.80 "Hg2 mi
9:00 PM75 °FDuststorm.12 mph65%29.80 "Hg2 mi
8:30 PM77 °FDuststorm.12 mph61%29.80 "Hg2 mi
8:00 PM77 °FDuststorm.12 mph57%29.80 "Hg2 mi
7:30 PM79 °FDuststorm.16 mph54%29.77 "Hg2 mi
7:00 PM79 °FDuststorm.16 mph51%29.77 "Hg2 mi
6:30 PM82 °FDuststorm.15 mph48%29.77 "Hg2 mi
6:00 PM84 °FPassing clouds.15 mph45%29.77 "Hg2 mi
5:30 PM86 °FPassing clouds.16 mph43%29.77 "Hg2 mi
5:00 PM86 °FPassing clouds.16 mph46%29.74 "Hg2 mi
4:30 PM86 °FPassing clouds.16 mph46%29.74 "Hg2 mi
4:00 PM88 °FPassing clouds.14 mph43%29.77 "Hg2 mi
3:30 PM90 °FLow level haze.12 mph38%29.77 "Hg2 mi
3:00 PM90 °FLow level haze.14 mph38%29.77 "Hg2 mi
2:30 PM90 °FLow level haze.14 mph38%29.77 "Hg2 mi
12:30 PM90 °FScattered clouds.14 mph38%29.80 "Hg2 mi
12:00 PM88 °FScattered clouds.14 mph38%29.80 "Hg2 mi
11:30 AM90 °FScattered clouds.14 mph36%29.83 "Hg2 mi
11:00 AM88 °FScattered clouds.16 mph38%29.83 "Hg2 mi
10:30 AM88 °FLow level haze.14 mph40%29.83 "Hg2 mi
10:00 AM86 °FLow level haze.14 mph46%29.83 "Hg2 mi
9:30 AM84 °FPassing clouds.14 mph48%29.83 "Hg2 mi
9:00 AM82 °FPassing clouds.12 mph48%29.83 "Hg2 mi
8:00 AM79 °FHaze.12 mph54%29.80 "Hg2 mi
7:30 AM77 °FScattered clouds.9 mph61%29.77 "Hg2 mi
7:00 AM73 °FScattered clouds.5 mph65%29.77 "Hg2 mi
6:30 AM72 °FScattered clouds.3 mph65%29.74 "Hg2 mi
Weather by CustomWeather, © 2015

See weather overviewHow to use our weather pages